Regional Weather Roundup
Issued by NWS

Home | Current Version | Previous Version | Graphics & Text | Print | Product List | Glossary On
Versions: 1 2 3 4 5 6 7 8 9 10 11 12 13 14 15 16 17 18 19 20 21 22 23 24 25 26 27 28 29 30 31 32 33 34 35 36 37 38 39 40 41 42 43 44 45 46 47 48 49 50
000
ASUS43 KIND 070359
RWRIN

WEATHER ROUNDUP FOR INDIANA
NATIONAL WEATHER SERVICE INDIANAPOLIS IN
1200 AM EDT TUE JUL 07 2015

NOTE: "FAIR" INDICATES FEW OR NO CLOUDS BELOW 12,000 FEET WITH NO
SIGNIFICANT WEATHER AND/OR OBSTRUCTIONS TO VISIBILITY.

* - STATION DOES NOT REPORT WEATHER SUCH AS PRECIPITATION OR FOG.

+ - STATION NOT QUALITY CONTROLLED BY THE NATIONAL WEATHER SERVICE.
    USE DATA WITH CAUTION...ESPECIALLY DEWPOINT AND RELATIVE
    HUMIDITY OBSERVATIONS.

INZ001>003-010>013-019-020-070500-
NORTHWEST INDIANA

CITY           SKY/WX    TMP DP  RH WIND       PRES   REMARKS
MONTICELLO +   CLOUDY    77  73  88 S9        29.91F
RENSSELAER +   CLOUDY    77  73  88 S9        29.89F

$$

LMZ046-743>745-070500-
SOUTHERN LAKE MICHIGAN

STATION/POSITION TIME  TEMP    WIND        PRES    WAVE
                       AIR SEA DIR/SP/G            HT
                 (UTC) (F)     (DEG/KT/KT) (MB)    (FT)
BURNS HARBOR     0300   77     180/ 10/ 17 1011.9F
MICHIGAN CITY    0300   76     160/ 12/ 16   N/A
5NW MICH CITY    0300   75 68  200/ 12/ 16   N/A     1

$$

INZ004-005-014>016-021>024-070500-
NORTH CENTRAL INDIANA

CITY           SKY/WX    TMP DP  RH WIND       PRES   REMARKS
GOSHEN         CLOUDY    77  68  73 S12       29.91F
SOUTH BEND     CLOUDY    79  71  76 S13       29.89F

$$

INZ006>009-017-018-025>027-070500-
NORTHEAST INDIANA

CITY           SKY/WX    TMP DP  RH WIND       PRES   REMARKS
ANGOLA *+        N/A     75  70  83 S5        29.94S
FORT WAYNE     CLOUDY    75  68  78 S8        29.95F

$$

INZ028-029-035-036-043>045-051>053-070500-
WEST CENTRAL INDIANA

CITY           SKY/WX    TMP DP  RH WIND       PRES   REMARKS
CRAWFORDSVL +  CLOUDY    71  63  75 S6        29.95F
GREENCASTLE +  CLOUDY    70  64  83 CALM      29.97F
LAFAYETTE      CLOUDY    76  69  79 SW7       29.92F
TERRE HAUTE    FAIR      73  70  90 S5        29.95F

$$

INZ030>032-037>040-046>048-054>057-064-065-070500-
CENTRAL INDIANA

CITY           SKY/WX    TMP DP  RH WIND       PRES   REMARKS
INDIANAPOLIS   CLOUDY    78  70  76 S12       29.96S
-EAGLE CREEK   CLOUDY    78  71  79 S9        29.96F
KOKOMO *+      CLOUDY    75  70  83 S9        29.93F
MT COMFORT *+  CLOUDY    75  72  88 S6        29.98F
SHELBYVILLE    CLOUDY    77  70  79 S7        29.98F

$$

INZ033-034-041-042-049-050-058-059-070500-
EAST CENTRAL INDIANA

CITY           SKY/WX    TMP DP  RH WIND       PRES   REMARKS
MUNCIE         CLOUDY    77  69  76 S7        29.97F

$$

INZ060-061-067>069-081>083-085>088-070500-
SOUTHWEST INDIANA

CITY           SKY/WX    TMP DP  RH WIND       PRES   REMARKS
EVANSVILLE     PTCLDY    80  72  76 S8        29.99S
HUNTINGBURG *+ MOCLDY    77  72  83 S8        30.00S

$$

INZ062-063-066-070>080-084-089>092-070500-
SOUTH CENTRAL AND SOUTHEAST INDIANA

CITY           SKY/WX    TMP DP  RH WIND       PRES   REMARKS
BLOOMINGTON    CLOUDY    77  72  84 S8        29.98F
MADISON *+     PTCLDY    73  68  83 S3        30.04F

$$



USA.gov is the U.S. government's official web portal to all federal, state and local government web resources and services.